www.pogodaiklimat.ru

Погода и климат >> Архив погоды >> Россия >> Калмыкия >> Ики-Бурул


ПОГОДА в Ики-Буруле

  • Прогноз погоды в Ики-Буруле
  • Монитор погоды в Ики-Буруле

АРХИВ ПОГОДЫ в Ики-Буруле

Время (UTC), дата Ветер
(напр.,м/с)
 
Видим.   Явления Облачность Т
(С)
Тd
(С)
f
(%)
Тe
(С)
Тes
(С)
Комфортность P
(гПа)
Po
(гПа)
Тmin
(С)
Tmax
(С)
R
(мм)
R24
(мм)
S
(см)
03 20.06 СВ 4 20 км ясно +23.7 +11.2 45 +25 +26 комфорт 1009.3 996.3 +22.7
06 20.06 СВ 4 20 км 3/0
[Ac lent]
+30.5 +11.7 31 +31 +37 жарко 1009.3 996.6
09 20.06 СВ 3
{10}
20 км 4/3 1500 м
[Cu hum Ac cast]
+35.1 +9.1 20 +34 +44 очень
жарко
1008.4 995.9
12 20.06 С 3 20 км 6/6 1500 м
[Cu med, cong]
+36.0 +8.2 18 +34 +38 очень
жарко
1007.4 994.9
15 20.06 СВ 4
{12}
20 км 8/8 1500 м
[Cb calv]
+34.3 +9.1 21 +33 +33 жарко 1007.2 994.7 +36.1
18 20.06 В 3 20 км 8/8 1000 м
[Sc diur, vesp]
+27.6 +10.7 35 +28 +28 жарко 1008.9 996.1
21 20.06 В 3 20 км 3/3 1000 м
[Cb cap]
+23.4 +11.2 46 +26 +26 жарко 1010.3 997.3
00 21.06 В 2 20 км 6/0
[Ac As]
+22.0 +12.6 55 +25 +25 комфорт 1011.4 998.3
03 21.06 В 3 20 км 3/0
[Ac trans]
+25.5 +13.2 46 +27 +29 жарко 1012.2 999.3 +21.8
06 21.06 В 5 20 км 6/0
[Ac trans Ci fib]
+32.6 +7.6 21 +31 +35 жарко 1012.5 999.9
09 21.06 СВ 5
{12}
20 км 9/6 1500 м
[Cu hum Ci fib]
+34.4 +7.7 19 +33 +36 жарко 1012.0 999.4
12 21.06 СВ 3
{11}
20 км 9/4 1500 м
[Cu hum Ci fib]
+34.8 +6.5 17 +33 +38 жарко 1011.4 998.8
15 21.06 СВ 3
{13}
20 км 9/0
[Ac cast Ci]
+33.3 +4.6 17 +31 +32 жарко 1011.8 999.1 +35.4
18 21.06 СВ 3 20 км 9/0
[Ci fib]
+28.5 +5.6 23 +27 +27 жарко 1012.7 999.9
21 21.06 Ю 1 20 км 9/0
[Ci fib]
+25.0 +12.5 46 +27 +27 жарко 1013.6 1000.6
00 22.06 С 3 20 км 8/0
[Ci fib]
+23.4 +12.7 51 +26 +26 жарко 1013.3 1000.3
03 22.06 СВ 3 20 км 8/0
[Ci fib]
+25.2 +8.8 35 +26 +27 жарко 1014.1 1001.1 +22.2
06 22.06 В 5 20 км 8/0
[Ci fib]
+33.0 +7.1 20 +31 +37 жарко 1013.8 1001.2
09 22.06 В 5-11
{13}
20 км 8/1 1500 м
[Cu hum Ci fib]
+36.2 +4.4 14 +33 +41 жарко 1012.8 1000.3
12 22.06 В 5
{11}
20 км 8/3 1500 м
[Cu hum Ci fib]
+38.0 +3.7 12 +35 +39 очень
жарко
1011.6 999.2
15 22.06 В 5-10
{10}
20 км 9/0
[Ac cast Ci sp]
+35.7 +5.4 15 +33 +34 жарко 1011.5 999.0 +38.2
18 22.06 ЮВ 3
{10}
20 км 8/0
[Ci fib]
+30.5 +6.8 23 +29 +29 жарко 1013.0 1000.3
21 22.06 В 2 20 км ясно +25.8 +7.8 32 +26 +26 жарко 1012.9 1000.0
00 23.06 В 2 20 км 4/0
[Ci fib]
+22.6 +7.5 38 +24 +24 комфорт 1013.6 1000.6
03 23.06 СВ 1 20 км 9/0
[Ci fib]
+27.1 +7.4 29 +27 +28 жарко 1013.8 1000.9 +22.1
06 23.06 В 5 20 км 3/0
[Ci fib]
+34.3 +7.1 19 +32 +38 жарко 1013.2 1000.6
09 23.06 В 5
{11}
20 км 5/0
[Ac cast]
+38.3 +6.1 14 +36 +42 очень
жарко
1012.0 999.6
12 23.06 В 5-13
{13}
20 км 6/6 1500 м
[Cu hum]
+39.8 +7.0 14 +37 +40 очень
жарко
1010.8 998.5
15 23.06 В 7-12
{13}
20 км 8/0
[Ac cast Ci fib]
+36.3 +8.6 18 +34 +35 очень
жарко
1010.9 998.4 +39.8
18 23.06 В 3
{12}
20 км 3/0
[Ac trans]
+30.7 +10.6 29 +31 +31 жарко 1012.3 999.6
21 23.06 В 2 20 км ясно +27.1 +9.5 33 +27 +27 жарко 1012.5 999.6
00 24.06 В 2 20 км 8/0
[Cc]
+23.9 +12.6 49 +26 +26 жарко 1012.7 999.7
03 24.06 В 2 20 км 8/0
[Ci]
+24.9 +14.6 53 +28 +29 жарко 1013.1 1000.2 +21.6
06 24.06 СВ 2 20 км 6/0
[Ac cast Cc]
+34.1 +10.5 24 +33 +42 жарко 1012.4 999.8
09 24.06 В 2 20 км 9/3 1500 м
[Cu hum Ac cast Cc]
+37.6 +9.4 18 +36 +44 очень
жарко
1011.2 998.7
12 24.06 ЮВ 2 20 км 10/0
[Ac und]
+36.7 +9.8 20 +35 +39 очень
жарко
1010.2 997.7
15 24.06 СЗ 6-10
{11}
20 км 9/9 1000 м
[Cb cap]
+31.1 +14.2 36 +33 +33 душно 1011.5 998.8 +38.4
18 24.06 З 3
{10}
20 км {ливн. осадки} 9/9 1000 м
[Cb cap]
+28.5 +13.4 39 +30 +30 жарко 1012.2 999.4
21 24.06 С 3 20 км в посл. час ливневой дождь 10/10 1000 м
[Cb cap]
+27.0 +14.2 45 +29 +29 жарко 1011.6 998.8
00 25.06 З 2 20 км {ливн. осадки} 5/0
[Ac trans]
+22.5 +15.4 64 +26 +26 жарко 1012.1 999.0
03 25.06 З 2 20 км 5/0
[Ac trans Ci fib]
+21.8 +17.4 76 +26 +28 душно 1013.1 1000.1 +20.1 0.7
06 25.06 З 2 20 км 3/0
[Ci fib]
+30.9 +16.1 41 +34 +45 душно 1013.0 1000.3
09 25.06 З 3 20 км 5/3 1500 м
[Cu hum Ac trans Ci fib]
+36.5 +11.7 22 +36 +45 очень
жарко
1012.1 999.6
12 25.06 С 2 20 км 8/4 1500 м
[Cu hum Ac cast]
+35.6 +10.5 22 +35 +39 очень
жарко
1011.4 999.0
15 25.06 С 3
{12}
20 км в посл. час гроза 9/3 1500 м
[Cb calv Ac cast]
+34.9 +11.1 24 +34 +35 очень
жарко
1011.8 999.3 +37.2
18 25.06 С 2 20 км {гроза} 3/3 1000 м
[Cb cap]
+30.2 +10.2 29 +30 +30 жарко 1013.0 1000.3
21 25.06 СВ 3 20 км ясно +27.0 +13.1 42 +29 +29 жарко 1013.9 1001.0
00 26.06 СВ 3 20 км гроза без осадков 8/3 1000 м
[Cb cap Ac trans Ci fib]
+24.5 +14.0 52 +27 +27 жарко 1014.9 1001.9
03 26.06 С 4 20 км 9/0
[Ac cast Ci fib]
+24.6 +14.1 52 +27 +28 жарко 1015.8 1002.8 +24.2
06 26.06 СВ 4 20 км 8/0
[Ac cast Ci fib]
+29.2 +14.0 39 +31 +37 жарко 1016.0 1003.2
09 26.06 СВ 3 20 км 9/0
[Ac cast Ci fib]
+32.7 +12.8 30 +33 +40 жарко 1016.1 1003.4
12 26.06 С 2 20 км 8/3 1500 м
[Cu hum Ac cast]
+33.9 +12.1 27 +34 +38 очень
жарко
1014.9 1002.3
15 26.06 СВ 3 20 км 6/0
[Ac cast]
+33.8 +11.7 26 +34 +35 очень
жарко
1013.7 1001.1 +34.7
18 26.06 СВ 4 20 км 8/0
[Ac trans]
+29.8 +8.0 26 +29 +29 жарко 1014.5 1001.7
21 26.06 В 1 20 км ясно +27.2 +10.6 35 +28 +28 жарко 1014.1 1001.2

 

Местоположение метеостанции Ики-Бурул (Калмыкия, Россия): широта 45.80 долгота 44.63 высота над уровнем моря 113 м.

В архиве по умолчанию представлена погода в Ики-Буруле за последнюю неделю. Архивные данные за месяц целиком и за предыдущие месяцы, начиная с января 2011 года, Вы можете получить, выбрав интересующий диапазон дат из раскрывающегося списка и нажав кнопку "Ввод!".


*Определитесь, кто Вы:
робот инопланетянин человек

Внимание! Время в таблицах - всемирное. Для получения местного времени необходимо прибавить поправку, которая равна 3 ч.

Смотрите также архив погоды в соседних городах и на ближайших метеорологических станциях:

Погода в Арзгире (Ставропольский край, Россия) (56 км)
Погода в Элисте (Калмыкия, Россия) (67 км)
Погода в Яшкуле (Калмыкия, Россия) (70 км)
Погода в Дивном (Ставропольский край, Россия) (100 км)
Погода в Ремонтном (Ростовская область, Россия) (113 км)
Погода в Комсомольском (Калмыкия, Россия) (120 км)
Погода в Буденновске (Ставропольский край, Россия) (120 км)
Погода в Благодарном (Ставропольский край, Россия) (121 км)
Погода в Утте (Калмыкия, Россия) (125 км)
Погода в Светлограде (Ставропольский край, Россия) (147 км)

Пояснения к столбцам:

Ветер - указаны скорость ветра в м/с - средняя за 10 мин, порывы в срок и между сроками (в фигурных скобках) и направление, откуда дует ветер: С - северный, СВ - северо-восточный, В - восточный, ЮВ - юго-восточный, Ю - южный, ЮЗ - юго-западный, З - западный, СЗ - северо-западный.
Видимость - горизонтальная дальность видимости в метрах или километрах. При видимости от 1 до 10 км при отсутствии осадков обычно наблюдается дымка, при ухудшении видимости до 1 км и менее - туман. В сухую погоду видимость может ухудшаться дымом, пылью или мглою.
Явления - указаны атмосферные явления, наблюдавшиеся в срок или в последний час перед сроком; фигурными скобками обозначены явления, наблюдавшиеся между сроками (за 1-3 часа до срока); квадратными скобками обозначены град или гололедные отложения с указанием их диаметра в мм.
Облачность - указаны через наклонную черту общая и нижняя облачность в баллах и высота нижней границы облаков в метрах; квадратными скобками обозначены формы облаков: Ci - перистые, Cs - перисто-слоистые, Cc - перисто-кучевые, Ac - высококучевые, As - высокослоистые, Sc - слоисто-кучевые, Ns - слоисто-дождевые, Cu - кучевые, Cb - кучево-дождевые. Подробнее классификацию облаков см. в Атласе облаков (PDF).
T - Температура воздуха - температура, измеренная на высоте 2 м над землей.
Td - Температура точки росы - температура, при понижении до которой содержащийся в воздухе водяной пар достигнет насыщения.
f - Относительная влажность воздуха - влажноcть воздуха, измеренная на высоте 2 м над землей.
Te - Эффективная температура - температура, которую ощущает одетый по сезону человек в тени. Характеристика душности погоды. При расчете учитывается влияние влажности воздуха и скорости ветра на теплоощущения человека.
Tes - Эффективная температура на солнце - температура, которую ощущает человек, с поправкой на солнечный нагрев. Характеристика знойности погоды. Зависит от высоты солнца над горизонтом, облачности и скорости ветра. Ночью, в пасмурную погоду, а также при ветре 12 м/с и более поправка равна нулю.
P - Атмосферное давление - приведенное к уровню моря атмосферное давление.
Po - Атмосферное давление - измеренное на уровне метеостанции атмосферное давление.
Tmin - Минимальная температура - минимум температуры воздуха на высоте 2 м над землей.
Tmax - Максимальная температура - максимум температуры воздуха на высоте 2 м над землей.
R - Количество осадков - Количество выпавших осадков за период времени, мм. При наведении курсора мыши на число - период времени, за который выпало указанное количество осадков.
R24 - Количество осадков - Количество выпавших осадков за 24 часа, мм.
S - Снежный покров - Высота снежного покрова, см. При наведении курсора мыши на число - состояние снежного покрова и степень покрытия местности в баллах.